Current Weather Conditions: station ENRS

sailwx.info

See reports from other nearby stations

no recent reports received from weather station ID ENRS

Tides Pressure Air temp Water temp Dewpoint Dewpoint depression Visibility Wind speed Wind direction Waves Ship positions
date/time (UTC)wind fromknots sea level pressurealtimeterstation pressurevisibilityair tempwater tempwave heightnotes
2017-Feb-28 11:20 070 22 5.4 3.0
2017-Feb-28 10:50 080 20 5.4 4.0
2017-Feb-28 10:20 090 20 5.4 3.0
2017-Feb-28 09:20 100 13 5.4 3.0
2017-Feb-28 08:50 100 6 5.4 2.0 Showers in the vicinity.
2017-Feb-28 07:50 090 7 5.4 2.0 Showers in the vicinity.
2017-Feb-28 07:20 070 13 2.7 1.0 Light rain showers.
2017-Feb-28 06:50 100 13 5.4 2.0
2017-Feb-28 06:20 110 13 5.4 2.0
2017-Feb-28 05:50 110 14 5.4 2.0
2017-Feb-27 18:50 160 6 5.4-0.0 Light snow showers.
2017-Feb-27 18:20 120 4 4.9-0.0 Light snow showers.
2017-Feb-27 17:50 120 4 5.4-0.0
2017-Feb-27 17:20 060 6 5.4 1.0
2017-Feb-27 16:50 080 7 5.4 1.0
2017-Feb-27 07:50 070 17 5.4-1.0
2017-Feb-27 07:20 070 18 5.4-1.0
2017-Feb-27 06:50 060 17 5.4-2.0
2017-Feb-27 06:20 060 15 5.4-1.0
2017-Feb-27 05:50 070 17 5.4-1.0
2017-Feb-26 14:20 070 18 5.4 2.0
2017-Feb-26 12:20 090 18 5.4 2.0